Time,TemperatureF,DewpointF,PressureIn,WindDirection,WindDirectionDegrees,WindSpeedMPH,WindSpeedGustMPH,Humidity,HourlyPrecipIn,Conditions,Clouds,dailyrainin,SoftwareType,DateUTC
2014-10-30 00:11:00,60.3,47.0,29.97,NNW,336,0.0,-999.0,63,-99.99,,,0.00,weatherlink.com 1.10,2014-10-30 07:11:00,
2014-10-30 00:26:00,60.4,47.0,29.96,NNW,336,0.0,-999.0,62,-99.99,,,0.00,weatherlink.com 1.10,2014-10-30 07:26:00,
2014-10-30 00:41:00,60.4,47.0,29.96,NNW,336,0.0,-999.0,62,-99.99,,,0.00,weatherlink.com 1.10,2014-10-30 07:41:00,
2014-10-30 00:56:00,60.3,47.0,29.96,NNW,336,0.0,-999.0,63,-99.99,,,0.00,weatherlink.com 1.10,2014-10-30 07:56:00,
2014-10-30 01:11:00,60.2,48.0,29.96,NNW,336,0.0,-999.0,64,-99.99,,,0.00,weatherlink.com 1.10,2014-10-30 08:11:00,
2014-10-30 01:26:00,59.7,47.0,29.95,NNW,336,0.0,-999.0,64,-99.99,,,0.00,weatherlink.com 1.10,2014-10-30 08:26:00,
2014-10-30 01:41:00,59.5,47.0,29.95,NNW,336,0.0,-999.0,64,-99.99,,,0.00,weatherlink.com 1.10,2014-10-30 08:41:00,
2014-10-30 01:56:00,59.5,47.0,29.95,NNW,336,0.0,-999.0,64,-99.99,,,0.00,weatherlink.com 1.10,2014-10-30 08:56:00,
2014-10-30 02:11:00,59.2,47.0,29.94,NNW,336,0.0,-999.0,64,-99.99,,,0.00,weatherlink.com 1.10,2014-10-30 09:11:00,
2014-10-30 02:26:00,59.0,46.0,29.94,NNW,336,0.0,-999.0,62,-99.99,,,0.00,weatherlink.com 1.10,2014-10-30 09:26:00,
2014-10-30 02:41:00,59.0,45.0,29.94,NNW,336,0.0,-999.0,60,-99.99,,,0.00,weatherlink.com 1.10,2014-10-30 09:41:00,
2014-10-30 02:56:00,59.0,44.0,29.93,NNW,336,0.0,-999.0,59,-99.99,,,0.00,weatherlink.com 1.10,2014-10-30 09:56:00,
2014-10-30 03:11:00,58.8,43.0,29.93,NNW,336,0.0,-999.0,57,-99.99,,,0.00,weatherlink.com 1.10,2014-10-30 10:11:00,
2014-10-30 03:26:00,58.5,43.0,29.92,NNW,336,0.0,-999.0,56,-99.99,,,0.00,weatherlink.com 1.10,2014-10-30 10:26:00,
2014-10-30 03:41:00,58.4,42.0,29.92,NNW,336,0.0,-999.0,54,-99.99,,,0.00,weatherlink.com 1.10,2014-10-30 10:41:00,
2014-10-30 03:56:00,58.7,41.0,29.92,NNW,336,0.0,-999.0,53,-99.99,,,0.00,weatherlink.com 1.10,2014-10-30 10:56:00,
2014-10-30 04:11:00,59.2,40.0,29.91,NNW,336,0.0,-999.0,50,-99.99,,,0.00,weatherlink.com 1.10,2014-10-30 11:11:00,
2014-10-30 04:26:00,59.2,41.0,29.91,NNW,336,0.0,-999.0,51,-99.99,,,0.00,weatherlink.com 1.10,2014-10-30 11:26:00,
2014-10-30 04:41:00,58.6,40.0,29.90,NNW,336,0.0,-999.0,51,-99.99,,,0.00,weatherlink.com 1.10,2014-10-30 11:41:00,
2014-10-30 04:56:00,58.5,40.0,29.90,NNW,336,0.0,-999.0,50,-99.99,,,0.00,weatherlink.com 1.10,2014-10-30 11:56:00,
2014-10-30 05:11:00,58.2,38.0,29.91,NNW,336,0.0,-999.0,47,-99.99,,,0.00,weatherlink.com 1.10,2014-10-30 12:11:00,
2014-10-30 05:26:00,58.5,36.0,29.91,NNW,336,0.0,-999.0,44,-99.99,,,0.00,weatherlink.com 1.10,2014-10-30 12:26:00,
2014-10-30 05:41:00,58.8,36.0,29.91,NNW,336,0.0,-999.0,43,-99.99,,,0.00,weatherlink.com 1.10,2014-10-30 12:41:00,
2014-10-30 05:56:00,58.9,36.0,29.91,NNW,336,0.0,-999.0,42,-99.99,,,0.00,weatherlink.com 1.10,2014-10-30 12:56:00,
2014-10-30 06:11:00,59.1,35.0,29.91,NNW,336,0.0,-999.0,41,-99.99,,,0.00,weatherlink.com 1.10,2014-10-30 13:11:00,
2014-10-30 06:26:00,59.0,35.0,29.91,NNW,336,0.0,-999.0,41,-99.99,,,0.00,weatherlink.com 1.10,2014-10-30 13:26:00,
2014-10-30 06:41:00,58.9,35.0,29.91,NNW,336,0.0,-999.0,41,-99.99,,,0.00,weatherlink.com 1.10,2014-10-30 13:41:00,
2014-10-30 06:56:00,58.3,35.0,29.91,NNW,336,0.0,-999.0,42,-99.99,,,0.00,weatherlink.com 1.10,2014-10-30 13:56:00,
2014-10-30 07:11:00,58.2,35.0,29.91,NNW,336,0.0,-999.0,42,-99.99,,,0.00,weatherlink.com 1.10,2014-10-30 14:11:00,
2014-10-30 07:26:00,58.4,35.0,29.91,NNW,336,0.0,-999.0,41,-99.99,,,0.00,weatherlink.com 1.10,2014-10-30 14:26:00,
2014-10-30 07:41:00,57.8,35.0,29.91,NNW,336,0.0,-999.0,43,-99.99,,,0.00,weatherlink.com 1.10,2014-10-30 14:41:00,
2014-10-30 07:56:00,57.4,35.0,29.91,NNW,336,0.0,-999.0,44,-99.99,,,0.00,weatherlink.com 1.10,2014-10-30 14:56:00,
2014-10-30 08:11:00,57.2,36.0,29.92,NNW,336,0.0,-999.0,46,-99.99,,,0.00,weatherlink.com 1.10,2014-10-30 15:11:00,
2014-10-30 08:26:00,57.4,37.0,29.93,NNW,336,0.0,-999.0,46,-99.99,,,0.00,weatherlink.com 1.10,2014-10-30 15:26:00,
2014-10-30 08:41:00,57.6,38.0,29.93,NNW,336,0.0,-999.0,48,-99.99,,,0.00,weatherlink.com 1.10,2014-10-30 15:41:00,
2014-10-30 08:56:00,57.3,40.0,29.93,NNW,336,0.0,-999.0,52,-99.99,,,0.00,weatherlink.com 1.10,2014-10-30 15:56:00,
2014-10-30 09:11:00,57.1,39.0,29.93,NNW,336,0.0,-999.0,52,-99.99,,,0.00,weatherlink.com 1.10,2014-10-30 16:11:00,
2014-10-30 09:26:00,57.7,41.0,29.93,NNW,336,0.0,-999.0,54,-99.99,,,0.00,weatherlink.com 1.10,2014-10-30 16:26:00,
2014-10-30 09:41:00,58.2,41.0,29.93,NNW,336,0.0,-999.0,54,-99.99,,,0.00,weatherlink.com 1.10,2014-10-30 16:41:00,
2014-10-30 09:56:00,58.6,42.0,29.93,NNW,336,0.0,-999.0,55,-99.99,,,0.00,weatherlink.com 1.10,2014-10-30 16:56:00,
2014-10-30 10:11:00,59.1,42.0,29.93,NNW,336,0.0,-999.0,54,-99.99,,,0.00,weatherlink.com 1.10,2014-10-30 17:11:00,
2014-10-30 10:26:00,61.3,43.0,29.93,NNW,336,0.0,-999.0,52,-99.99,,,0.00,weatherlink.com 1.10,2014-10-30 17:26:00,
2014-10-30 10:41:00,62.2,45.0,29.93,NNW,336,0.0,-999.0,53,-99.99,,,0.00,weatherlink.com 1.10,2014-10-30 17:41:00,
2014-10-30 10:56:00,63.2,45.0,29.92,NNW,336,0.0,-999.0,52,-99.99,,,0.00,weatherlink.com 1.10,2014-10-30 17:56:00,
2014-10-30 11:26:00,65.2,45.0,29.91,NNW,336,0.0,-999.0,48,-99.99,,,0.00,weatherlink.com 1.10,2014-10-30 18:26:00,
2014-10-30 11:41:00,66.1,44.0,29.91,NNW,336,0.0,-999.0,45,-99.99,,,0.00,weatherlink.com 1.10,2014-10-30 18:41:00,
2014-10-30 11:56:00,66.6,44.0,29.90,NNW,336,0.0,-999.0,44,-99.99,,,0.00,weatherlink.com 1.10,2014-10-30 18:56:00,
2014-10-30 12:11:00,67.2,43.0,29.90,NNW,336,0.0,-999.0,41,-99.99,,,0.00,weatherlink.com 1.10,2014-10-30 19:11:00,
2014-10-30 12:26:00,68.0,41.0,29.89,NNW,336,0.0,-999.0,37,-99.99,,,0.00,weatherlink.com 1.10,2014-10-30 19:26:00,
2014-10-30 12:41:00,69.3,42.0,29.89,NNW,336,0.0,-999.0,38,-99.99,,,0.00,weatherlink.com 1.10,2014-10-30 19:41:00,
2014-10-30 12:56:00,70.1,43.0,29.88,NNW,338,0.0,-999.0,38,-99.99,,,0.00,weatherlink.com 1.10,2014-10-30 19:56:00,
2014-10-30 13:11:00,70.7,43.0,29.88,NNW,337,0.0,-999.0,37,-99.99,,,0.00,weatherlink.com 1.10,2014-10-30 20:11:00,
2014-10-30 13:26:00,71.9,42.0,29.87,WSW,243,0.0,-999.0,34,-99.99,,,0.00,weatherlink.com 1.10,2014-10-30 20:26:00,
2014-10-30 13:41:00,72.1,42.0,29.87,SW,232,0.0,-999.0,34,-99.99,,,0.00,weatherlink.com 1.10,2014-10-30 20:41:00,
2014-10-30 13:56:00,71.5,40.0,29.86,SSW,193,0.0,-999.0,32,-99.99,,,0.00,weatherlink.com 1.10,2014-10-30 20:56:00,
2014-10-30 14:11:00,70.9,42.0,29.85,SSW,193,0.0,-999.0,35,-99.99,,,0.00,weatherlink.com 1.10,2014-10-30 21:11:00,
2014-10-30 14:26:00,70.6,41.0,29.85,SSW,203,0.0,-999.0,34,-99.99,,,0.00,weatherlink.com 1.10,2014-10-30 21:26:00,
2014-10-30 14:56:00,68.8,41.0,29.85,SSW,202,0.0,-999.0,37,-99.99,,,0.00,weatherlink.com 1.10,2014-10-30 21:56:00,
2014-10-30 15:11:00,68.7,41.0,29.84,SSW,202,0.0,-999.0,37,-99.99,,,0.00,weatherlink.com 1.10,2014-10-30 22:11:00,
2014-10-30 15:26:00,68.0,41.0,29.84,SSW,202,0.0,-999.0,38,-99.99,,,0.00,weatherlink.com 1.10,2014-10-30 22:26:00,
2014-10-30 15:41:00,68.9,43.0,29.84,SSW,201,0.0,-999.0,40,-99.99,,,0.00,weatherlink.com 1.10,2014-10-30 22:41:00,
2014-10-30 15:56:00,69.4,43.0,29.84,SW,217,0.0,-999.0,39,-99.99,,,0.00,weatherlink.com 1.10,2014-10-30 22:56:00,